Location: Raitis
(47.2167°N, 11.3833°E)
Time: 11:41:07
(UTC+00:00)

CSL-04 Rocket - Pass Details

Date: 03 March 2021
Orbit: 805 x 860 km, 98.9° (Epoch: 23 April)

Event Time Altitude Azimuth Distance (km) Brightness Sun altitude
Rises 18:21:21 0° 165° (SSE) 3,424 6.7 -14.1°
Reaches altitude 10° 18:23:43 10° 166° (SSE) 2,490 5.9 -14.5°
Maximum altitude 18:29:16 83° 255° (WSW) 868 3.8 -15.5°
Drops below altitude 10° 18:34:49 10° 344° (NNW) 2,486 6.4 -16.4°
Sets 18:37:11 0° 345° (NNW) 3,418 7.2 -16.8°
